User: anonymous   Login
Location: Unspecified
(0.0000°N, 0.0000°E)
Time: 18:09:01
(UTC+00:00)
Language:

Cosmos 1626 - Orbit

View from above orbital plane
View from above orbital plane
View from above satellite
View from above satellite

Ground track
Ground track

The orbit data is extracted from the following two-line orbital elements,

1 15494U 85009A   18016.63018614  .00000821  00000-0  33567-4 0  9999
2 15494  82.4782  36.0685 0003452  53.4401 306.7153 15.22915462801253
Epoch (UTC): 16 January 2018 15:07:28
Eccentricity: 0.0003452
inclination: 82.4782°
perigee height: 494 km
apogee height: 499 km
right ascension of ascending node: 36.0685°
argument of perigee: 53.4401°
revolutions per day: 15.22915462
mean anomaly at epoch: 306.7153°
orbit number at epoch: 80125

The dashed part of the orbit path shows where the satellite is in the earth's shadow,  

DLR